A/2020 F7

Japanese version
Home page
Updated on June 13, 2020

---------------------------------------------------------------------

* Profile

Discovery Date March 22, 2020
Magnitude 20.2 mag
Discoverer Mt. Lemmon Survey

* Orbital Elements

Epoch 2021 Nov. 2.0 TT = JDT 2459520.5
T 2021 Nov. 14.00580 TT                                 Rudenko
q   5.3320307            (2000.0)            P               Q
z  +0.0014350      Peri.  227.97066     -0.49515456     +0.61292265
 +/-0.0000108      Node   321.88669     +0.71087283     -0.12163372
e   0.9923487      Incl.   93.95363     -0.49948150     -0.78072471
H   12.0
From 99 observations 2020 Jan. 4-May 19, mean residual 0".4.

* Magnitudes Graph

        H = 11.5  G = 0.15

---------------------------------------------------------------------

The orbital elements are published on M.P.E.C. 2020-L06.
The magnitudes graphs are made with Comet for Windows.

---------------------------------------------------------------------

Copyright(C) Seiichi Yoshida (comet@aerith.net). All rights reserved.